This is the latest recevied weather packets stored in our database for station/object OE5RBO. If no packets are shown the sender has not sent any weather packets the latest 1 day(s).
| Time | Temp. | Humidity | Pressure | Rain* | Wind** | Luminosity | Snow |
|---|---|---|---|---|---|---|---|
| 1778092792 | 12.78° C | 99% | 1007 hPa | 8.64 mm | - | - | - |
| 1778092192 | 12.78° C | 99% | 1006.4 hPa | 8.64 mm | - | - | - |
| 1778088590 | 12.22° C | 100% | 1004.7 hPa | 8.64 mm | - | - | - |
| 1778084387 | 21.67° C | 63% | 1000.9 hPa | 0 mm | - | - | - |
| 1778082586 | 22.78° C | 60% | 1001.4 hPa | 0 mm | - | - | - |
| 1778080785 | 22.78° C | 60% | 1001.8 hPa | 0 mm | - | - | - |
| 1778077783 | 23.33° C | 59% | 1002.5 hPa | 0 mm | - | - | - |
| 1778075982 | 23.33° C | 58% | 1002.8 hPa | 0 mm | - | - | - |
| 1778075382 | 22.78° C | 60% | 1002.9 hPa | 0 mm | - | - | - |
| 1778074781 | 22.22° C | 63% | 1002.9 hPa | 0 mm | - | - | - |
| 1778074181 | 22.78° C | 61% | 1003.2 hPa | 0 mm | - | - | - |
| 1778072980 | 21.11° C | 67% | 1003.4 hPa | 0 mm | - | - | - |
| 1778069378 | 23.33° C | 53% | 1003.9 hPa | 0 mm | - | - | - |
| 1778067577 | 23.89° C | 53% | 1004.4 hPa | 0 mm | - | - | - |
| 1778066376 | 22.78° C | 53% | 1004.8 hPa | 0 mm | - | - | - |
| 1778064575 | 21.67° C | 57% | 1005.4 hPa | 0 mm | - | - | - |
| 1778062774 | 21.11° C | 59% | 1005.6 hPa | 0 mm | - | - | - |
| 1778061573 | 20.56° C | 65% | 1005.8 hPa | 0 mm | - | - | - |
| 1778060973 | 20° C | 64% | 1006 hPa | 0 mm | - | - | - |
| 1778059772 | 18.89° C | 72% | 1006 hPa | 0 mm | - | - | - |
| 1778055570 | 20.56° C | 63% | 1006.2 hPa | 0 mm | - | - | - |
| 1778054369 | 20° C | 64% | 1006.5 hPa | 0 mm | - | - | - |
| 1778053769 | 22.22° C | 60% | 1006.3 hPa | 0 mm | - | - | - |
| 1778052568 | 23.33° C | 58% | 1006.6 hPa | 0 mm | - | - | - |
| 1778051367 | 21.11° C | 71% | 1006.9 hPa | 0 mm | - | - | - |
* Rain since midnight (hover to see other rain measurements)
** Current wind speed in m/s (hover to see current wind gust speed)